Location: Azul
(36.7830°S, 59.8500°W)
Time: 03:00:21
(UTC-03:00)

ISS - Pass Details

Date: 19 October 2019
Orbit: 411 x 421 km, 51.6° (Epoch: 14 October)

Event Time Altitude Azimuth Distance (km) Brightness Sun altitude
Rises 20:24:38 0° 307° (NW) 2,348 0.5 -13.2°
Reaches altitude 10° 20:26:43 10° 305° (NW) 1,493 -0.5 -13.6°
Maximum altitude 20:30:04 72° 219° (SW) 446 -3.5 -14.2°
Drops below altitude 10° 20:33:28 10° 134° (SE) 1,515 -1.1 -14.8°
Enters shadow 20:34:18 - 133° (SE) 1,858 -0.7 -15.0°
